Weather History for Princeton, MN

Change the Weather History Date:

Wednesday, February 20, 2013

  Actual Average Record
Temperature  
Mean Temperature -2 °F -  
Max Temperature 10 °F 28 °F 44 °F (1998)
Min Temperature -14 °F 11 °F -16 °F (2008)
Degree Days  
Heating Degree Days 67    
Moisture  
Dew Point -7 °F    
Average Humidity 68    
Maximum Humidity 84    
Minimum Humidity 48    
Precipitation  
Precipitation 0.00 in - - ()
Sea Level Pressure  
Sea Level Pressure 30.40 in    
Wind  
Wind Speed 3 mph (NNW)    
Max Wind Speed 7 mph    
Max Gust Speed -    
Visibility 10 miles    
Events      
Averages and records for this station are not official NWS values.
T = Trace of Precipitation, MM = Missing Value Source: NWS Daily Summary

Daily Weather History Graph

Daily Weather History Graph

Search for Another Location

Airport:

Trip Planner

Search our weather history database for the weather conditions in past years. The results will help you decide how hot, cold, wet, or windy it might be!

Date:

Astronomy

Feb. 20, 2013 Rise Set
Actual Time 7:07 AM CST 5:49 PM CST
Civil Twilight 6:37 AM CST 6:19 PM CST
Nautical Twilight 6:03 AM CST 6:53 PM CST
Astronomical Twilight 5:28 AM CST 7:28 PM CST
Moon 1:02 PM CST (2/20) 3:37 AM CST (2/20)
Length of Visible Light 11h 41m
Length of Day
10h 41m
Waxing Gibbous, 76% of the Moon is Illuminated
Feb 20
Waxing Gibbous
Feb 25
Full
Mar 4
Last Quarter
Mar 11
New
Mar 19
First Quarter

Hourly Weather History & Observations

Time (CST) Temp. Windchill Dew Point Humidity Pressure Visibility Wind Dir Wind Speed Gust Speed Precip Events Conditions
12:11 AM -0.4 °F -12.0 °F -9.4 °F 66% 30.34 in 10.0 mi NW 5.8 mph - N/A   Clear
12:31 AM -2.2 °F -14.2 °F -9.4 °F 71% 30.36 in 10.0 mi NNW 5.8 mph - N/A   Clear
12:51 AM -2.2 °F -12.5 °F -9.4 °F 71% 30.36 in 10.0 mi NNW 4.6 mph - N/A   Clear
1:11 AM -2.2 °F -12.5 °F -9.4 °F 71% 30.37 in 10.0 mi NW 4.6 mph - N/A   Clear
1:31 AM -4.0 °F -14.6 °F -11.2 °F 71% 30.37 in 10.0 mi NW 4.6 mph - N/A   Clear
1:51 AM -2.2 °F -10.4 °F -9.4 °F 71% 30.38 in 10.0 mi NNW 3.5 mph - N/A   Clear
2:11 AM -2.2 °F -10.4 °F -9.4 °F 71% 30.38 in 10.0 mi NW 3.5 mph - N/A   Clear
2:51 AM -4.0 °F -14.6 °F -9.4 °F 78% 30.38 in 10.0 mi NW 4.6 mph - N/A   Clear
3:11 AM -5.8 °F -14.5 °F -11.2 °F 77% 30.39 in 10.0 mi WNW 3.5 mph - N/A   Clear
3:32 AM -5.8 °F -14.5 °F -11.2 °F 77% 30.39 in 10.0 mi WNW 3.5 mph - N/A   Clear
3:51 AM -7.6 °F -16.5 °F -11.2 °F 84% 30.39 in 10.0 mi NNW 3.5 mph - N/A   Clear
4:11 AM -5.8 °F -14.5 °F -11.2 °F 77% 30.40 in 10.0 mi NW 3.5 mph - N/A   Clear
4:32 AM -5.8 °F -16.7 °F -11.2 °F 77% 30.40 in 10.0 mi NW 4.6 mph - N/A   Clear
4:51 AM -7.6 °F -16.5 °F -13.0 °F 77% 30.41 in 10.0 mi NW 3.5 mph - N/A   Clear
5:11 AM -9.4 °F - -14.8 °F 77% 30.40 in 10.0 mi Calm Calm - N/A   Clear
5:32 AM -7.6 °F -18.8 °F -11.2 °F 84% 30.40 in 10.0 mi NNW 4.6 mph - N/A   Clear
5:51 AM -7.6 °F -18.8 °F -11.2 °F 84% 30.40 in 10.0 mi NNW 4.6 mph - N/A   Clear
6:11 AM -7.6 °F -16.5 °F -13.0 °F 77% 30.41 in 10.0 mi NW 3.5 mph - N/A   Clear
6:32 AM -9.4 °F -20.9 °F -14.8 °F 77% 30.42 in 10.0 mi West 4.6 mph - N/A   Clear
7:11 AM -14.8 °F - -18.4 °F 84% 30.42 in 10.0 mi Calm Calm - N/A   Clear
7:31 AM -11.2 °F - -14.8 °F 84% 30.42 in 10.0 mi Calm Calm - N/A   Clear
7:51 AM -9.4 °F -18.6 °F -14.8 °F 77% 30.42 in 10.0 mi North 3.5 mph - N/A   Clear
8:12 AM -7.6 °F -16.5 °F -11.2 °F 84% 30.44 in 10.0 mi NW 3.5 mph - N/A   Clear
8:31 AM -5.8 °F -16.7 °F -11.2 °F 77% 30.43 in 10.0 mi North 4.6 mph - N/A   Clear
8:51 AM -5.8 °F -16.7 °F -11.2 °F 77% 30.43 in 10.0 mi NNE 4.6 mph - N/A   Clear
9:12 AM -2.2 °F -15.6 °F -9.4 °F 71% 30.42 in 10.0 mi NNE 6.9 mph - N/A   Clear
9:31 AM -2.2 °F -15.6 °F -9.4 °F 71% 30.43 in 10.0 mi NNE 6.9 mph - N/A   Clear
9:51 AM -0.4 °F -13.4 °F -9.4 °F 66% 30.42 in 10.0 mi North 6.9 mph - N/A   Clear
10:12 AM -0.4 °F -12.0 °F -9.4 °F 66% 30.42 in 10.0 mi ENE 5.8 mph - N/A   Clear
10:31 AM 1.4 °F - -9.4 °F 61% 30.43 in 10.0 mi Calm Calm - N/A   Clear
10:51 AM 3.2 °F - -7.6 °F 61% 30.43 in 10.0 mi Calm Calm - N/A   Clear
11:12 AM 5.0 °F - -7.6 °F 56% 30.43 in 10.0 mi Calm Calm - N/A   Clear
11:31 AM 3.2 °F - -7.6 °F 61% 30.43 in 10.0 mi Calm Calm - N/A   Clear
11:51 AM 6.8 °F - -7.6 °F 52% 30.43 in 10.0 mi Calm Calm - N/A   Clear
12:11 PM 6.8 °F - -5.8 °F 56% 30.43 in 10.0 mi Calm Calm - N/A   Clear
12:31 PM 6.8 °F - -5.8 °F 56% 30.42 in 10.0 mi Calm Calm - N/A   Clear
12:51 PM 8.6 °F 2.0 °F -5.8 °F 52% 30.42 in 10.0 mi WNW 3.5 mph - N/A   Clear
1:11 PM 8.6 °F - -5.8 °F 52% 30.42 in 10.0 mi Calm Calm - N/A   Clear
1:31 PM 10.4 °F - -5.8 °F 48% 30.43 in 10.0 mi Calm Calm - N/A   Clear
2:11 PM 10.4 °F - -4.0 °F 52% 30.43 in 10.0 mi Calm Calm - N/A   Clear
2:31 PM 10.4 °F - -2.2 °F 57% 30.43 in 10.0 mi Calm Calm - N/A   Clear
2:52 PM 10.4 °F 4.0 °F -2.2 °F 57% 30.43 in 10.0 mi North 3.5 mph - N/A   Clear
3:11 PM 10.4 °F 4.0 °F -2.2 °F 57% 30.43 in 10.0 mi NW 3.5 mph - N/A   Clear
3:31 PM 10.4 °F - -2.2 °F 57% 30.42 in 10.0 mi Calm Calm - N/A   Clear
3:52 PM 10.4 °F 4.0 °F -2.2 °F 57% 30.42 in 10.0 mi North 3.5 mph - N/A   Clear
4:11 PM 10.4 °F 0.8 °F -2.2 °F 57% 30.41 in 10.0 mi NNE 5.8 mph - N/A   Clear
4:31 PM 10.4 °F 2.2 °F -2.2 °F 57% 30.41 in 10.0 mi NNE 4.6 mph - N/A   Clear
4:52 PM 10.4 °F 4.0 °F -2.2 °F 57% 30.41 in 10.0 mi NE 3.5 mph - N/A   Clear
5:11 PM 10.4 °F 4.0 °F -2.2 °F 57% 30.40 in 10.0 mi NE 3.5 mph - N/A   Clear
5:31 PM 10.4 °F 2.2 °F -2.2 °F 57% 30.40 in 10.0 mi NE 4.6 mph - N/A   Clear
5:51 PM 10.4 °F 4.0 °F -2.2 °F 57% 30.39 in 10.0 mi NE 3.5 mph - N/A   Clear
6:11 PM 10.4 °F - -2.2 °F 57% 30.39 in 10.0 mi Calm Calm - N/A   Clear
6:32 PM 10.4 °F - -2.2 °F 57% 30.39 in 10.0 mi Calm Calm - N/A   Clear
6:51 PM 10.4 °F - -2.2 °F 57% 30.38 in 10.0 mi Calm Calm - N/A   Clear
7:11 PM 8.6 °F - -2.2 °F 62% 30.38 in 10.0 mi Calm Calm - N/A   Clear
7:32 PM 6.8 °F - -2.2 °F 67% 30.38 in 10.0 mi Calm Calm - N/A   Clear
7:51 PM 5.0 °F - -4.0 °F 66% 30.38 in 10.0 mi Calm Calm - N/A   Clear
8:11 PM 3.2 °F - -4.0 °F 72% 30.37 in 10.0 mi Calm Calm - N/A   Clear
8:32 PM 3.2 °F - -4.0 °F 72% 30.37 in 10.0 mi Calm Calm - N/A   Clear
9:11 PM 1.4 °F - -5.8 °F 72% 30.38 in 10.0 mi Calm Calm - N/A   Clear
9:31 PM 1.4 °F - -5.8 °F 72% 30.37 in 10.0 mi Calm Calm - N/A   Clear
9:51 PM -0.4 °F - -5.8 °F 78% 30.38 in 10.0 mi Calm Calm - N/A   Clear
10:31 PM -0.4 °F - -5.8 °F 78% 30.38 in 10.0 mi Calm Calm - N/A   Clear
10:51 PM -0.4 °F -8.3 °F -7.6 °F 72% 30.38 in 10.0 mi NE 3.5 mph - N/A   Clear
11:11 PM -0.4 °F -8.3 °F -7.6 °F 72% 30.38 in 10.0 mi NNE 3.5 mph - N/A   Clear
11:31 PM -0.4 °F - -7.6 °F 72% 30.38 in 10.0 mi Calm Calm - N/A   Clear
11:51 PM -0.4 °F -10.4 °F -5.8 °F 78% 30.38 in 10.0 mi NE 4.6 mph - N/A   Clear